[[{"header":{"parameterUnit":"m.s-1","parameterCategory":2,"la1":30.2991,"la2":30.254,"lo1":-89.0895,"lo2":-89.0444,"dy":0.0017,"dx":0.0017,"nx":28,"ny":28,"refTime":"2024-05-11T03:00:00:Z","depth":"0","parameterNumber":2,"parameterNumberName":"U-component_of_CURRENTS"},"data":[0,0,0,0,0,0,0,0,0,0,0,0,0,0,0,0,0,0,0,0,0,0,0,0,0,0,0,0,0,0,0,0,0,0,0,0,0,0,0,0,0,0,0,0,0,0,0,0,0,0,0,0,0,0,0,0,0,0,0.3761,0.3762,0,0.3787,0.3787,0.3787,0.3784,0.3784,0.3784,0.3784,0.3789,0.3789,0.379,0,0,0,0,0,0,0,0,0,0,0,0,0,0.3718,0.3719,0.3761,0.3762,0.3763,0.3787,0.3787,0.3787,0.3784,0.3784,0.3784,0.3784,0.3789,0.3789,0.379,0,0,0,0,0,0,0,0,0,0,0,0,0,0.3737,0.3719,0.3761,0.3766,0.3767,0.3787,0.3787,0.3787,0.3784,0.3784,0.3784,0.3784,0.3789,0.3789,0.379,0.3796,0,0,0.3791,0.3791,0,0,0,0,0,0,0,0,0.3736,0.3738,0.3765,0.3766,0.3767,0.3785,0.3774,0.379,0.3784,0.3774,0.3784,0.3784,0.3788,0.3789,0.3789,0.3796,0.3796,0.3791,0.3791,0.3791,0.3791,0,0,0,0,0,0,0,0.3734,0.3737,0.3768,0.3766,0.3767,0.3771,0.3773,0.3777,0.3779,0.3775,0.3776,0.3784,0.3788,0.3789,0.379,0.3796,0.3791,0.3791,0.3791,0.3791,0.3804,0.3804,0,0,0,0,0,0,0.3738,0.3736,0.3768,0.3769,0.3754,0.3772,0.3774,0.3777,0.3779,0.3781,0.3784,0.3784,0.3789,0.3789,0.379,0.3824,0.3791,0.3792,0.3792,0.3804,0.3804,0.3804,0,0,0,0,0,0,0.3736,0.374,0.3767,0.3756,0.376,0.3773,0.3776,0.3778,0.3783,0.3787,0.3787,0.379,0.3788,0.3789,0.379,0.3823,0.3792,0.3792,0.3804,0.3804,0.3804,0.3875,0,0,0,0,0,0,0.3735,0.3739,0.3741,0.3756,0.3761,0.378,0.3777,0.3778,0.379,0.379,0.3792,0.3792,0.3788,0.379,0.3791,0.3823,0.3792,0.3803,0.3804,0.3804,0.3873,0.3878,0.3882,0,0,0,0,0,0.3733,0.3731,0.3741,0.3745,0.3763,0.3781,0.3783,0.3789,0.3791,0.3793,0.379,0.3792,0.3792,0.379,0.3791,0.3825,0.3803,0.3804,0.3804,0.3871,0.3877,0.3882,0,0,0,0,0,0,0.3706,0.3732,0.3742,0.3746,0.3766,0.3781,0.3784,0.3794,0.3795,0.3793,0.3792,0.3792,0.3813,0.3796,0.3794,0.3824,0.3798,0.3799,0.3849,0.3855,0.3859,0.3904,0.3793,0,0,0,0,0,0.3705,0.3713,0.3739,0.3743,0.3754,0.3772,0.378,0.3789,0.3795,0.3796,0.3799,0.3799,0.3814,0.3814,0.382,0.383,0.3852,0.3849,0.3854,0.3858,0.3893,0.3961,0.3977,0.3805,0.3805,0.3805,0,0,0.3693,0.3711,0.3714,0.3739,0.3753,0.3779,0.3775,0.379,0.3818,0.3796,0.3821,0.3821,0.3821,0.3841,0.3848,0.3831,0.3909,0.3859,0.3863,0.3896,0.3963,0.3981,0.3996,0.3805,0.3805,0.3805,0,0,0.3685,0.3694,0.3705,0.3728,0.3759,0.3777,0.3785,0.3807,0.3821,0.3843,0.3844,0.3865,0.3865,0.3887,0.3896,0.3927,0.3939,0.3914,0.3973,0.4038,0.4055,0.4069,0.4087,0.4103,0.3909,0.3909,0.3909,0,0.3675,0.3692,0.371,0.3736,0.3758,0.3781,0.3806,0.3831,0.3851,0.3878,0.3855,0.3905,0.39,0.396,0.397,0.3946,0.3966,0.3956,0.405,0.4065,0.4079,0.4094,0.4111,0.3913,0.3912,0.3912,0.3912,0,0.3683,0.3703,0.3711,0.3758,0.3784,0.3803,0.385,0.3877,0.3896,0.393,0.3987,0.3986,0.4021,0.4018,0.4007,0.4099,0.4073,0.4059,0.4048,0.4102,0.4112,0.4128,0.3918,0.3916,0.3915,0.3914,0,0,0.3644,0.3705,0.3708,0.3737,0.3796,0.3818,0.3877,0.3941,0.3993,0.4022,0.4091,0.4126,0.4141,0.4152,0.4143,0.4196,0.4293,0.4173,0.4174,0.4211,0.4414,0.437,0.4382,0.4302,0.4306,0.4309,0.4371,0,0.3645,0.369,0.3726,0.3776,0.3804,0.3858,0.3917,0.3985,0.4034,0.4104,0.415,0.4203,0.4187,0.4202,0.4264,0.4293,0.4345,0.4276,0.4339,0.434,0.4314,0.4404,0.4294,0.434,0.4386,0.4389,0.4391,0,0.364,0.3675,0.3717,0.3798,0.3816,0.3854,0.3954,0.4009,0.4126,0.4172,0.4253,0.4287,0.4381,0.4345,0.4465,0.4422,0.4438,0.4452,0.4454,0.4412,0.4329,0.4297,0.4368,0.4282,0.4416,0.4414,0.4412,0,0.3596,0.3667,0.3698,0.3723,0.3819,0.3855,0.391,0.4025,0.4089,0.4216,0.428,0.4388,0.4445,0.451,0.4553,0.4517,0.4674,0.4615,0.4589,0.4583,0.4505,0.4486,0.4526,0.4717,0.4717,0.4717,0.4717,0,0.3575,0.3601,0.3678,0.3694,0.3749,0.3829,0.3904,0.3984,0.411,0.4198,0.4307,0.4393,0.4499,0.4592,0.4606,0.4665,0.4721,0.464,0.4624,0.4518,0.4501,0.4432,0.4376,0.4719,0.4719,0.4718,0.4718,0,0.3515,0.3563,0.3604,0.3695,0.3724,0.3761,0.3882,0.3939,0.4078,0.4195,0.4241,0.4429,0.4556,0.4641,0.4748,0.473,0.4655,0.4775,0.4624,0.4591,0.4453,0.4402,0.424,0.411,0.4748,0.4748,0.4748,0,0.3484,0.3498,0.358,0.3598,0.3631,0.3702,0.3747,0.3894,0.3965,0.4205,0.4254,0.4443,0.4564,0.4721,0.4748,0.4791,0.4642,0.4677,0.4597,0.4473,0.4406,0.4189,0.4075,0.4497,0.4495,0.4493,0.4492,0,0.3427,0.3454,0.3486,0.3521,0.3557,0.3613,0.3696,0.375,0.3931,0.4045,0.4211,0.4337,0.4556,0.4591,0.4685,0.4687,0.4466,0.4637,0.4569,0.4286,0.3995,0.385,0.4393,0.4475,0.4477,0.4478,0.4479,0.448,0.3374,0.3374,0.3408,0.3428,0.3463,0.3492,0.3491,0.3604,0.3697,0.3834,0.4053,0.4191,0.4404,0.4544,0.4511,0.4432,0.4353,0.4319,0.4287,0.4092,0.3915,0.4408,0.4436,0.4437,0.4438,0.4439,0.444,0,0.3286,0.3291,0.3311,0.3314,0.3288,0.3361,0.342,0.3396,0.3426,0.3637,0.3764,0.4,0.4091,0.4215,0.4271,0.4135,0.3904,0.4013,0.3711,0.3629,0.4152,0.4095,0.3978,0.3978,0.3978,0.3978,0.3978,0.3978,0.324,0.3207,0.3206,0.3124,0.3121,0.3048,0.3044,0.3046,0.3147,0.3249,0.3387,0.3571,0.3908,0.4062,0.3999,0.3897,0.3596,0.3427,0.3371,0.3802,0.3828,0.3852,0.3788,0.3608,0.3607,0.2711,0.2705,0.27]},{"header":{"parameterUnit":"m.s-1","parameterCategory":2,"la1":30.2991,"la2":30.254,"lo1":-89.0895,"lo2":-89.0444,"dy":0.0017,"dx":0.0017,"nx":28,"ny":28,"refTime":"2024-05-11T03:00:00:Z","depth":"0","parameterNumber":3,"parameterNumberName":"V-component_of_CURRENTS"},"data":[0,0,0,0,0,0,0,0,0,0,0,0,0,0,0,0,0,0,0,0,0,0,0,0,0,0,0,0,0,0,0,0,0,0,0,0,0,0,0,0,0,0,0,0,0,0,0,0,0,0,0,0,0,0,0,0,0,0,0.0189,0.0188,0,0.0146,0.0145,0.0145,0.0115,0.0115,0.0115,0.0115,0.0041,0.0039,0.0037,0,0,0,0,0,0,0,0,0,0,0,0,0,0.0183,0.0184,0.0189,0.0188,0.0188,0.0146,0.0145,0.0144,0.0115,0.0115,0.0115,0.0115,0.0041,0.0039,0.0037,0,0,0,0,0,0,0,0,0,0,0,0,0,0.0166,0.0184,0.0189,0.0169,0.0167,0.0146,0.0145,0.0144,0.0115,0.0115,0.0115,0.0115,0.0042,0.0039,0.0037,0.0022,0,0,0.0028,0.0027,0,0,0,0,0,0,0,0,0.0167,0.0166,0.0173,0.0171,0.0168,0.0137,0.0116,0.0102,0.0115,0.0133,0.0115,0.0115,0.0071,0.0066,0.0056,0.0018,0.0015,0.0028,0.0026,0.0025,0.0024,0,0,0,0,0,0,0,0.0169,0.0168,0.017,0.0172,0.017,0.0141,0.0139,0.0113,0.0102,0.0132,0.013,0.0127,0.0069,0.0059,0.0054,0.0014,0.0028,0.0025,0.0023,0.0022,-0.0037,-0.0036,0,0,0,0,0,0,0.018,0.0169,0.0172,0.0169,0.0169,0.0142,0.0139,0.0146,0.0103,0.0097,0.0128,0.0126,0.0064,0.0058,0.0052,0.0046,0.0025,0.0022,0.002,-0.0037,-0.0037,-0.0036,0,0,0,0,0,0,0.0181,0.0181,0.0174,0.0169,0.0166,0.0143,0.015,0.0145,0.0139,0.01,0.0093,0.0127,0.0064,0.0056,0.0039,0.0042,0.0021,0.0018,-0.0037,-0.0037,-0.0036,0.0025,0,0,0,0,0,0,0.0181,0.0182,0.019,0.017,0.0167,0.0171,0.015,0.0145,0.0138,0.0136,0.0097,0.009,0.0063,0.0043,0.0036,0.0038,0.0016,-0.0037,-0.0037,-0.0037,0.0023,0.0027,0.0031,0,0,0,0,0,0.0181,0.0197,0.0191,0.0191,0.0179,0.0172,0.0168,0.0149,0.0139,0.0142,0.0117,0.0092,0.0039,0.0042,0.0033,0.0034,-0.0037,-0.0037,-0.0037,0.0021,0.0026,0.0031,0,0,0,0,0,0,0.02,0.0195,0.0188,0.0202,0.0191,0.0168,0.017,0.0155,0.0137,0.0134,0.0096,0.0088,0.0073,0.0045,0.0048,0.0017,-0.0005,-0.0006,0.0042,0.0047,0.0051,0.008,0.0014,0,0,0,0,0,0.0209,0.022,0.0206,0.0218,0.0216,0.0193,0.0187,0.0174,0.0156,0.0148,0.0121,0.0091,0.0066,0.0052,0.0025,0.001,-0.0015,0.0003,0.0008,0.0011,0.0029,-0.001,-0.0007,-0.0035,-0.0035,-0.0035,0,0,0.0218,0.0218,0.0223,0.0222,0.0213,0.0222,0.0189,0.0187,0.0194,0.0142,0.0142,0.0105,0.0065,0.005,0.004,0.0029,0.0006,0.0012,0.0016,0.0031,-0.0009,-0.0006,-0.0004,-0.0035,-0.0035,-0.0035,0,0,0.0249,0.0246,0.0266,0.0263,0.0256,0.0243,0.0247,0.0227,0.0217,0.0207,0.0173,0.0142,0.0105,0.0077,0.0058,0.0068,0.003,0.0056,0.01,0.0062,0.0064,0.0066,0.0038,0.0037,0.0057,0.0057,0.0057,0,0.0261,0.029,0.027,0.0289,0.0298,0.026,0.0286,0.0269,0.0245,0.0245,0.0217,0.0163,0.0119,0.0105,0.0105,0.0078,0.0057,0.0085,0.0068,0.0069,0.007,0.0041,0.0039,0.006,0.0059,0.0059,0.0059,0,0.031,0.0331,0.0344,0.0361,0.0362,0.0378,0.0358,0.0354,0.0332,0.0313,0.0292,0.0228,0.02,0.017,0.0139,0.0125,0.011,0.008,0.006,0.0077,0.0045,0.0042,0.0064,0.0063,0.0062,0.0061,0,0,0.0352,0.0375,0.0383,0.041,0.0406,0.042,0.0427,0.0432,0.0455,0.0397,0.0416,0.0339,0.0301,0.0277,0.0223,0.0181,0.0153,0.0141,0.0137,0.0122,0.0083,0.0077,0.0072,0.0123,0.0123,0.0122,0.0059,0,0.0403,0.0463,0.0456,0.0515,0.0548,0.0522,0.0542,0.0535,0.0517,0.0521,0.0438,0.0427,0.0343,0.0331,0.0275,0.0196,0.0148,0.0175,0.0062,0.0059,0.0058,0.0069,0.0115,0.0063,0.0055,0.0054,0.0054,0,0.0462,0.0498,0.0568,0.0613,0.0626,0.0652,0.0692,0.0704,0.0684,0.0667,0.0625,0.0564,0.0499,0.042,0.0285,0.031,0.0207,0.0128,0.0123,0.0099,0.0047,0.0043,0.0056,-0.0132,0.0049,0.0049,0.0049,0,0.0527,0.058,0.0646,0.0661,0.0699,0.0731,0.0752,0.0755,0.079,0.0765,0.0786,0.0681,0.0654,0.0506,0.0337,0.0314,0.0192,0.0133,0.0027,0.0025,0.0033,0.0033,-0.0139,0.0032,0.0032,0.0032,0.0032,0,0.0593,0.0646,0.0688,0.0728,0.0816,0.0811,0.09,0.0899,0.0923,0.0993,0.0874,0.0903,0.0676,0.0574,0.0392,0.0218,0.0228,0.0048,0.0012,0.0055,0.0058,-0.0131,-0.0243,0.003,0.003,0.0031,0.0031,0,0.0654,0.0678,0.0761,0.0822,0.0852,0.0918,0.1006,0.1068,0.1075,0.1164,0.1162,0.1077,0.0951,0.072,0.0493,0.0314,0.0021,0.0054,0.0127,0.0101,-0.0183,-0.0292,-0.0495,-0.0587,-0.0074,-0.0075,-0.0075,0,0.069,0.0741,0.084,0.0902,0.0938,0.1034,0.1106,0.1141,0.1221,0.1287,0.1344,0.1248,0.1223,0.0885,0.0545,0.0232,0.0022,0.0047,-0.0005,-0.0182,-0.0331,-0.0419,-0.0488,0.0025,0.0025,0.0026,0.0026,0,0.0761,0.0797,0.0866,0.0997,0.109,0.1201,0.1313,0.1403,0.147,0.1562,0.1661,0.1649,0.1337,0.1056,0.0611,0.037,-0.0077,0.0044,-0.0161,-0.0279,-0.0363,-0.0472,0.0048,0.0029,0.0029,0.0029,0.0028,0.0028,0.0815,0.0876,0.0973,0.1099,0.1211,0.1362,0.1476,0.1615,0.178,0.1943,0.191,0.1968,0.1543,0.0954,0.0584,-0.0035,-0.0072,-0.0221,-0.034,-0.0414,-0.05,0.0036,-0.0014,-0.0014,-0.0015,-0.0015,-0.0016,0,0.0879,0.0953,0.107,0.1221,0.1354,0.1405,0.1609,0.1745,0.1973,0.2141,0.2243,0.2132,0.1583,0.0992,0.0168,-0.0308,-0.0502,-0.058,-0.0702,-0.0759,-0.0292,-0.0284,-0.0366,-0.0366,-0.0365,-0.0365,-0.0365,-0.0365,0.0915,0.1031,0.1092,0.1316,0.143,0.1623,0.1752,0.1971,0.2151,0.24,0.2502,0.2532,0.2137,0.0623,-0.0429,-0.07,-0.1027,-0.1105,-0.1295,-0.0984,-0.0959,-0.0936,-0.0956,-0.1177,-0.1178,-0.1686,-0.1691,-0.1695]}],[{"header":{"parameterUnit":"m.s-1","parameterCategory":2,"la1":30.2991,"la2":30.254,"lo1":-89.0895,"lo2":-89.0444,"dy":0.0017,"dx":0.0017,"nx":28,"ny":28,"refTime":"2024-05-11T03:00:00:Z","depth":"2","parameterNumber":2,"parameterNumberName":"U-component_of_CURRENTS"},"data":[0,0,0,0,0,0,0,0,0,0,0,0,0,0,0,0,0,0,0,0,0,0,0,0,0,0,0,0,0,0,0,0,0,0,0,0,0,0,0,0,0,0,0,0,0,0,0,0,0,0,0,0,0,0,0,0,0,0,0.3255,0.3256,0,0.3269,0.3269,0.3269,0.3268,0.3268,0.3268,0.3269,0.3263,0.3262,0.3262,0,0,0,0,0,0,0,0,0,0,0,0,0,0.3216,0.3216,0.3255,0.3256,0.3256,0.3269,0.3269,0.3269,0.3268,0.3268,0.3268,0.3269,0.3263,0.3262,0.3262,0,0,0,0,0,0,0,0,0,0,0,0,0,0.3228,0.3216,0.3255,0.326,0.3261,0.3269,0.3269,0.3269,0.3268,0.3268,0.3268,0.3269,0.3263,0.3263,0.3262,0.3256,0,0,0.3261,0.3261,0,0,0,0,0,0,0,0,0.3227,0.3229,0.3259,0.326,0.3261,0.327,0.3253,0.3265,0.3268,0.3262,0.3269,0.3269,0.3265,0.3265,0.3263,0.3256,0.3256,0.3261,0.3261,0.326,0.326,0,0,0,0,0,0,0,0.3227,0.3229,0.3257,0.3259,0.3261,0.3257,0.3259,0.3255,0.3259,0.3262,0.3263,0.327,0.3265,0.3263,0.3262,0.3256,0.3261,0.3261,0.326,0.326,0.3289,0.329,0,0,0,0,0,0,0.3232,0.3228,0.3257,0.3258,0.3248,0.3258,0.326,0.3264,0.326,0.3261,0.327,0.327,0.3263,0.3263,0.3262,0.3305,0.3261,0.326,0.326,0.3288,0.3289,0.329,0,0,0,0,0,0,0.3231,0.3235,0.3257,0.3246,0.3249,0.3259,0.3264,0.3264,0.3274,0.3267,0.3266,0.328,0.3264,0.3263,0.3272,0.3302,0.326,0.326,0.3287,0.3288,0.3289,0.3357,0,0,0,0,0,0,0.323,0.3234,0.324,0.3247,0.325,0.3269,0.3264,0.3265,0.3279,0.3279,0.3275,0.3274,0.3264,0.3272,0.3271,0.3301,0.3259,0.3285,0.3287,0.3289,0.3354,0.3361,0.3367,0,0,0,0,0,0.3229,0.3231,0.3241,0.3244,0.3258,0.3269,0.3271,0.3276,0.3279,0.3284,0.3285,0.3275,0.3284,0.3273,0.3271,0.3302,0.3284,0.3287,0.3289,0.3351,0.336,0.3367,0,0,0,0,0,0,0.3209,0.3231,0.3242,0.325,0.3266,0.3271,0.3277,0.3284,0.3288,0.3291,0.3283,0.3282,0.3306,0.3289,0.3278,0.3315,0.3284,0.3286,0.3332,0.334,0.3346,0.3373,0.3259,0,0,0,0,0,0.3212,0.3224,0.3243,0.3251,0.3261,0.3273,0.328,0.3287,0.3293,0.3296,0.3296,0.3298,0.3312,0.3314,0.3317,0.333,0.3342,0.335,0.3356,0.3362,0.3383,0.3432,0.3446,0.3297,0.3297,0.3297,0,0,0.3205,0.3221,0.3226,0.3249,0.326,0.3282,0.3277,0.3292,0.3316,0.3294,0.332,0.3322,0.3321,0.3344,0.3353,0.3335,0.3408,0.3365,0.337,0.3388,0.3436,0.3451,0.3464,0.3299,0.3299,0.3298,0,0,0.3201,0.3215,0.3228,0.3249,0.3277,0.3288,0.3298,0.3315,0.333,0.3354,0.3354,0.3377,0.338,0.3395,0.3402,0.3445,0.3445,0.3442,0.3495,0.3543,0.3557,0.3568,0.3595,0.3609,0.3442,0.3442,0.3442,0,0.3197,0.3214,0.3232,0.3257,0.3276,0.3296,0.3318,0.334,0.3359,0.3384,0.3371,0.3417,0.3411,0.3462,0.348,0.3463,0.3484,0.3466,0.3555,0.3566,0.3578,0.3602,0.3617,0.3446,0.3445,0.3445,0.3444,0,0.3206,0.3227,0.3237,0.3279,0.3303,0.332,0.3361,0.3389,0.341,0.3437,0.3492,0.3493,0.3525,0.3527,0.3519,0.3596,0.3582,0.3562,0.3539,0.3597,0.3618,0.3632,0.3451,0.3449,0.3448,0.3447,0,0,0.317,0.3231,0.3235,0.3262,0.3315,0.3333,0.3389,0.3443,0.349,0.3521,0.3582,0.3614,0.363,0.3639,0.3636,0.3676,0.3763,0.3659,0.366,0.3694,0.3868,0.3805,0.3814,0.3765,0.3768,0.377,0.3849,0,0.3171,0.3214,0.3248,0.3293,0.3318,0.3368,0.3422,0.3481,0.3528,0.3593,0.3633,0.3684,0.3669,0.369,0.3736,0.3763,0.3805,0.3744,0.38,0.3801,0.3746,0.383,0.3526,0.3567,0.3862,0.3864,0.3866,0,0.3164,0.3197,0.3236,0.331,0.3328,0.3363,0.3453,0.3503,0.3609,0.3656,0.3729,0.376,0.3842,0.3807,0.3908,0.3874,0.3887,0.3896,0.3899,0.3832,0.3766,0.3557,0.358,0.3889,0.3887,0.3885,0.3884,0,0.3119,0.3186,0.3215,0.3238,0.3327,0.3364,0.3416,0.352,0.358,0.37,0.3761,0.3854,0.3912,0.3958,0.3994,0.3963,0.4093,0.4041,0.3995,0.399,0.3738,0.3705,0.4115,0.4115,0.4115,0.4115,0.4114,0,0.3094,0.3119,0.3197,0.3212,0.3264,0.3341,0.3413,0.3489,0.3608,0.3687,0.3789,0.3865,0.3959,0.4036,0.4043,0.4079,0.4137,0.4035,0.4022,0.375,0.372,0.3998,0.3984,0.4118,0.4117,0.4116,0.4116,0,0.3032,0.3082,0.312,0.321,0.324,0.3276,0.3397,0.3449,0.3585,0.3692,0.3738,0.3908,0.4016,0.4088,0.4173,0.4141,0.4168,0.4157,0.383,0.3777,0.4014,0.4002,0.4115,0.4114,0.4113,0.4112,0.4112,0,0.3001,0.3014,0.3097,0.3116,0.3152,0.3224,0.3269,0.3413,0.3479,0.37,0.3743,0.3913,0.4,0.4124,0.4105,0.4123,0.4178,0.3834,0.3718,0.4047,0.4023,0.4012,0.4001,0.34,0.3393,0.3388,0.3384,0,0.2941,0.2971,0.3002,0.304,0.308,0.3129,0.3213,0.3267,0.3441,0.3539,0.3676,0.3771,0.3928,0.3829,0.3887,0.3843,0.3808,0.3728,0.4171,0.3457,0.3381,0.3355,0.3366,0.3337,0.3341,0.3345,0.3347,0.3349,0.289,0.289,0.2927,0.2948,0.2989,0.301,0.3006,0.3108,0.3185,0.3296,0.3485,0.3521,0.3596,0.3534,0.3435,0.3358,0.3613,0.3428,0.344,0.3459,0.3372,0.3301,0.3223,0.3227,0.323,0.3233,0.3236,0,0.2804,0.2811,0.2831,0.2837,0.2815,0.2887,0.2937,0.2902,0.2915,0.3063,0.3144,0.2952,0.2926,0.299,0.2816,0.2828,0.2754,0.2696,0.2563,0.2616,0.2661,0.2527,0.2157,0.2153,0.2149,0.2146,0,0,0.276,0.2726,0.2724,0.2649,0.2655,0.2583,0.2576,0.2551,0.2602,0.2578,0.2579,0.2812,0.2933,0.2507,0.2463,0.2277,0.2414,0.2185,0.3064,0.2963,0.3002,0.3114,0.2974,0,0,0,0,0]},{"header":{"parameterUnit":"m.s-1","parameterCategory":2,"la1":30.2991,"la2":30.254,"lo1":-89.0895,"lo2":-89.0444,"dy":0.0017,"dx":0.0017,"nx":28,"ny":28,"refTime":"2024-05-11T03:00:00:Z","depth":"2","parameterNumber":3,"parameterNumberName":"V-component_of_CURRENTS"},"data":[0,0,0,0,0,0,0,0,0,0,0,0,0,0,0,0,0,0,0,0,0,0,0,0,0,0,0,0,0,0,0,0,0,0,0,0,0,0,0,0,0,0,0,0,0,0,0,0,0,0,0,0,0,0,0,0,0,0,0.0248,0.0248,0,0.021,0.021,0.0209,0.0184,0.0184,0.0184,0.0184,0.0124,0.0122,0.0121,0,0,0,0,0,0,0,0,0,0,0,0,0,0.0241,0.0242,0.0248,0.0248,0.0247,0.0211,0.021,0.0209,0.0184,0.0184,0.0184,0.0184,0.0124,0.0122,0.0121,0,0,0,0,0,0,0,0,0,0,0,0,0,0.0227,0.0242,0.0248,0.0231,0.0229,0.0211,0.021,0.0209,0.0184,0.0184,0.0184,0.0184,0.0125,0.0123,0.012,0.0109,0,0,0.0113,0.0112,0,0,0,0,0,0,0,0,0.0228,0.0227,0.0234,0.0232,0.023,0.0203,0.0185,0.0175,0.0184,0.02,0.0184,0.0184,0.0149,0.0144,0.0137,0.0106,0.0104,0.0113,0.0112,0.0111,0.011,0,0,0,0,0,0,0,0.0229,0.0229,0.0232,0.0233,0.0231,0.0206,0.0204,0.0183,0.0175,0.0199,0.0197,0.0195,0.0147,0.0139,0.0135,0.0103,0.0113,0.0111,0.011,0.0109,0.006,0.006,0,0,0,0,0,0,0.0239,0.023,0.0233,0.0231,0.023,0.0206,0.0204,0.0211,0.0175,0.017,0.0195,0.0194,0.0143,0.0138,0.0133,0.0132,0.0111,0.0109,0.0107,0.006,0.006,0.006,0,0,0,0,0,0,0.0239,0.024,0.0235,0.023,0.0227,0.0207,0.0214,0.021,0.0205,0.0173,0.0167,0.0194,0.0143,0.0136,0.0123,0.0129,0.0108,0.0106,0.006,0.006,0.006,0.0122,0,0,0,0,0,0,0.0239,0.0241,0.0248,0.0231,0.0228,0.0233,0.0214,0.021,0.0204,0.0202,0.017,0.0164,0.0142,0.0127,0.0121,0.0126,0.0104,0.006,0.006,0.006,0.012,0.0124,0.0128,0,0,0,0,0,0.0239,0.0255,0.0249,0.025,0.024,0.0234,0.0231,0.0214,0.0204,0.0208,0.0187,0.0165,0.0123,0.0125,0.0118,0.0123,0.006,0.006,0.006,0.0118,0.0123,0.0128,0,0,0,0,0,0,0.0256,0.0253,0.0247,0.0261,0.0251,0.023,0.0232,0.0219,0.0204,0.0202,0.017,0.0163,0.0152,0.0128,0.0131,0.0107,0.0086,0.0085,0.0132,0.0137,0.0141,0.0165,0.0102,0,0,0,0,0,0.0265,0.0276,0.0264,0.0275,0.0273,0.0253,0.0248,0.0236,0.0221,0.0214,0.0192,0.0166,0.0146,0.0136,0.0113,0.0103,0.0075,0.0099,0.0103,0.0107,0.0121,0.0081,0.0083,0.0061,0.0061,0.0061,0,0,0.0273,0.0274,0.0279,0.0279,0.0271,0.028,0.025,0.0248,0.0255,0.0209,0.0212,0.018,0.0146,0.0136,0.0129,0.0118,0.0096,0.0107,0.0111,0.0123,0.0082,0.0084,0.0086,0.0061,0.0061,0.0061,0,0,0.0301,0.0299,0.0318,0.0316,0.031,0.0299,0.0302,0.0284,0.0276,0.027,0.0239,0.0215,0.0185,0.0163,0.0148,0.0159,0.0119,0.0148,0.0189,0.015,0.0152,0.0153,0.0116,0.0114,0.015,0.015,0.015,0,0.0311,0.0339,0.0321,0.034,0.0349,0.0314,0.0339,0.0325,0.0304,0.0304,0.0279,0.0234,0.0199,0.0192,0.0193,0.017,0.0143,0.0176,0.0157,0.0157,0.0158,0.0119,0.0116,0.0153,0.0152,0.0152,0.0152,0,0.0355,0.0376,0.0388,0.0405,0.0408,0.0422,0.0406,0.0404,0.0385,0.0368,0.0351,0.0298,0.0274,0.0251,0.0226,0.0214,0.0192,0.0167,0.0149,0.0164,0.0122,0.0117,0.0157,0.0156,0.0155,0.0154,0,0,0.0391,0.0416,0.0423,0.0449,0.0448,0.0462,0.0471,0.0477,0.0497,0.0447,0.0463,0.0403,0.0368,0.0348,0.0302,0.0264,0.0231,0.0223,0.022,0.0195,0.0148,0.0133,0.0125,0.0204,0.0204,0.0203,0.0117,0,0.0436,0.0493,0.049,0.0546,0.0577,0.0556,0.0576,0.0571,0.0555,0.0557,0.0487,0.0477,0.0407,0.0397,0.0346,0.0269,0.0222,0.0257,0.013,0.0127,0.0118,0.0121,0.0147,0.0073,0.0112,0.0111,0.011,0,0.0489,0.0524,0.0589,0.0635,0.0647,0.0673,0.071,0.0722,0.0704,0.0687,0.065,0.0594,0.0536,0.0469,0.0336,0.0363,0.0265,0.0191,0.0185,0.015,0.0103,0.0063,0.0062,0.0102,0.0103,0.0103,0.0104,0,0.0545,0.0598,0.0659,0.0675,0.0713,0.0744,0.0765,0.0767,0.0799,0.0774,0.0788,0.0693,0.0663,0.0526,0.0364,0.0352,0.0213,0.0174,0.0063,0.006,0.0048,0.0046,0.0074,0.0074,0.0074,0.0075,0.0075,0,0.0604,0.0653,0.0695,0.0733,0.0815,0.0814,0.0894,0.0895,0.0914,0.097,0.0865,0.0881,0.0677,0.057,0.0403,0.0226,0.0237,0.0076,0.004,0.0069,0.0069,0.0069,0.0069,0.0071,0.0072,0.0073,0.0073,0,0.0656,0.068,0.0758,0.0818,0.0847,0.0907,0.0989,0.1043,0.1046,0.1116,0.1114,0.1024,0.0889,0.0674,0.0455,0.0295,0.0113,0.0043,0.0092,0.0063,-0.0027,-0.0022,-0.0087,-0.0088,-0.0089,-0.009,-0.009,0,0.0687,0.0734,0.0828,0.0885,0.092,0.1008,0.1074,0.1108,0.1176,0.1215,0.1258,0.115,0.1095,0.076,0.0456,0.016,0.0116,-0.0016,-0.004,-0.0012,-0.0042,-0.0036,-0.003,-0.004,-0.004,-0.004,-0.0041,0,0.0748,0.0782,0.0847,0.0965,0.1052,0.1154,0.1255,0.1331,0.1386,0.1446,0.1499,0.1457,0.1148,0.0849,0.0437,0.0238,0.0031,-0.0029,-0.0013,0.0004,0.0026,-0.0001,0.0004,-0.0042,-0.0042,-0.0042,-0.0042,-0.0042,0.0794,0.0848,0.0938,0.1052,0.1155,0.1289,0.1388,0.15,0.1627,0.1722,0.1676,0.1619,0.1278,0.0756,0.0395,0.0015,0.0039,-0.0101,-0.0098,-0.0096,-0.0067,-0.0047,-0.0125,-0.0125,-0.0125,-0.0125,-0.0126,0,0.0847,0.0913,0.1018,0.1155,0.1273,0.1325,0.15,0.1603,0.1767,0.1836,0.1873,0.1551,0.1209,0.0808,0.0248,-0.0079,-0.0105,-0.0187,-0.015,-0.0145,-0.0141,-0.0115,-0.0185,-0.0187,-0.0188,-0.0189,0,0,0.0877,0.0979,0.1032,0.1229,0.1332,0.1502,0.1609,0.1763,0.1858,0.1931,0.1894,0.1814,0.1333,0.0917,0.0464,0.0134,0.0073,0.0073,0.016,0.0264,0.0271,-0.005,0.0001,0,0,0,0,0]}],[{"header":{"parameterUnit":"m.s-1","parameterCategory":2,"la1":30.2991,"la2":30.254,"lo1":-89.0895,"lo2":-89.0444,"dy":0.0017,"dx":0.0017,"nx":28,"ny":28,"refTime":"2024-05-11T03:00:00:Z","depth":"4","parameterNumber":2,"parameterNumberName":"U-component_of_CURRENTS"},"data":[0,0,0,0,0,0,0,0,0,0,0,0,0,0,0,0,0,0,0,0,0,0,0,0,0,0,0,0,0,0,0,0,0,0,0,0,0,0,0,0,0,0,0,0,0,0,0,0,0,0,0,0,0,0,0,0,0,0,0.2189,0.219,0,0.2245,0.2245,0.2245,0.2308,0.2309,0.231,0.2311,0.2374,0.2374,0.2375,0,0,0,0,0,0,0,0,0,0,0,0,0,0.2107,0.2108,0.2189,0.219,0.2191,0.2245,0.2245,0.2246,0.2308,0.2309,0.2311,0.2312,0.2374,0.2374,0.2375,0,0,0,0,0,0,0,0,0,0,0,0,0,0.2148,0.2108,0.2188,0.223,0.2235,0.2245,0.2245,0.2246,0.2307,0.2309,0.2311,0.2313,0.2373,0.2374,0.2375,0.2344,0,0,0.2377,0.2378,0,0,0,0,0,0,0,0,0.2145,0.215,0.2223,0.2228,0.2233,0.2274,0.2239,0.228,0.2307,0.2277,0.2311,0.2314,0.2342,0.2345,0.2347,0.2347,0.235,0.2378,0.2378,0.2378,0.2379,0,0,0,0,0,0,0,0.2142,0.2148,0.2208,0.2224,0.223,0.2237,0.2245,0.2247,0.2296,0.2279,0.2285,0.2295,0.2344,0.2346,0.2349,0.2351,0.2378,0.2378,0.2379,0.2379,0.2472,0.2474,0,0,0,0,0,0,0.2141,0.2145,0.2206,0.221,0.2196,0.2237,0.2246,0.2256,0.2296,0.2305,0.2294,0.2298,0.2344,0.2348,0.2352,0.2446,0.2378,0.2379,0.238,0.247,0.2472,0.2474,0,0,0,0,0,0,0.2139,0.2146,0.2204,0.2181,0.219,0.2237,0.2248,0.2257,0.2306,0.2308,0.2316,0.2341,0.2346,0.2351,0.24,0.2444,0.238,0.238,0.2467,0.2471,0.2473,0.2552,0,0,0,0,0,0,0.2137,0.2145,0.2173,0.2181,0.2191,0.2237,0.2247,0.2256,0.2309,0.2316,0.235,0.2355,0.2347,0.2399,0.2401,0.2444,0.2381,0.2465,0.2469,0.2472,0.2547,0.2557,0.2566,0,0,0,0,0,0.2133,0.2153,0.2174,0.2183,0.2221,0.2238,0.2244,0.2281,0.231,0.2333,0.2366,0.2356,0.2424,0.2401,0.2403,0.2447,0.2463,0.2468,0.2472,0.2542,0.2555,0.2566,0,0,0,0,0,0,0.213,0.2161,0.2185,0.2215,0.2242,0.2251,0.2283,0.2306,0.2348,0.2372,0.2375,0.2382,0.2443,0.2433,0.2408,0.2486,0.2444,0.2449,0.2497,0.2509,0.2518,0.2528,0.2382,0,0,0,0,0,0.2142,0.2172,0.2195,0.2226,0.2244,0.2273,0.2295,0.232,0.2348,0.2372,0.2396,0.2425,0.2452,0.2474,0.2489,0.2526,0.2527,0.2558,0.2568,0.2576,0.2586,0.2628,0.2642,0.2489,0.2489,0.2489,0,0,0.2149,0.2173,0.2192,0.2229,0.2256,0.2285,0.2292,0.2336,0.2374,0.2369,0.2441,0.246,0.247,0.2519,0.2545,0.2523,0.2622,0.2582,0.2589,0.2595,0.2634,0.2649,0.2662,0.2492,0.2491,0.2491,0,0,0.2163,0.2203,0.2231,0.2258,0.2309,0.2323,0.2347,0.2384,0.2423,0.2479,0.2493,0.2543,0.258,0.2597,0.2608,0.2678,0.2672,0.2693,0.275,0.279,0.2803,0.2814,0.284,0.2853,0.2698,0.2698,0.2698,0,0.2178,0.2209,0.2241,0.2274,0.2305,0.2346,0.2379,0.2416,0.247,0.2507,0.2519,0.2605,0.2615,0.2674,0.2707,0.2701,0.2721,0.2704,0.2803,0.2814,0.2824,0.2848,0.2861,0.2702,0.2702,0.2701,0.2701,0,0.2195,0.2242,0.2262,0.2319,0.2355,0.2391,0.2441,0.2495,0.255,0.2585,0.2674,0.2696,0.2749,0.2763,0.276,0.2842,0.2833,0.2809,0.2772,0.2844,0.2864,0.2877,0.2708,0.2707,0.2705,0.2704,0,0,0.2169,0.2258,0.2271,0.231,0.2385,0.2409,0.2488,0.2555,0.2618,0.2686,0.2762,0.2823,0.2854,0.287,0.2879,0.2918,0.3008,0.2908,0.2909,0.2931,0.3104,0.2907,0.2901,0.3012,0.3014,0.3016,0.309,0,0.2178,0.2241,0.2287,0.2358,0.2392,0.2464,0.253,0.2606,0.2676,0.2759,0.2815,0.2891,0.2889,0.2933,0.2976,0.3005,0.3045,0.299,0.3033,0.3034,0.2847,0.2909,0.3024,0.3099,0.3102,0.3104,0.3106,0,0.217,0.2217,0.2286,0.2385,0.241,0.2467,0.2583,0.2647,0.2768,0.2831,0.2922,0.2967,0.3059,0.3036,0.3135,0.3108,0.3123,0.313,0.3133,0.2928,0.2858,0.3011,0.3127,0.3126,0.3124,0.3123,0.3121,0,0.2113,0.2213,0.227,0.2304,0.2421,0.2484,0.2557,0.2678,0.2746,0.2889,0.2958,0.306,0.3134,0.3177,0.3217,0.3195,0.3302,0.3261,0.3093,0.3079,0.32,0.3187,0.3322,0.3322,0.3322,0.3321,0.3321,0,0.2074,0.2127,0.226,0.229,0.2374,0.2472,0.2575,0.2666,0.2799,0.2875,0.3,0.3063,0.3181,0.3248,0.3256,0.3214,0.3339,0.3112,0.3086,0.3232,0.3222,0.3209,0.3195,0.3324,0.3324,0.3323,0.3323,0,0.1992,0.208,0.2155,0.2297,0.2349,0.2413,0.2574,0.2636,0.279,0.2894,0.2949,0.3107,0.319,0.3268,0.3341,0.3247,0.3232,0.3184,0.3351,0.3332,0.2973,0.2963,0.2991,0.2985,0.298,0.2975,0.2971,0,0.1948,0.1983,0.2143,0.2191,0.2264,0.2378,0.2447,0.2612,0.2675,0.2885,0.2912,0.3065,0.3144,0.3089,0.3188,0.3186,0.3145,0.3115,0.3022,0.2968,0.2941,0.2939,0.2936,0.2963,0.2961,0.296,0.2959,0,0.1864,0.1945,0.2008,0.2108,0.2194,0.2268,0.2385,0.2414,0.2594,0.276,0.2799,0.2832,0.2918,0.2958,0.2987,0.2977,0.3118,0.3058,0.3068,0.298,0.2933,0.2912,0.2915,0.294,0.2943,0.2944,0.2946,0,0.181,0.1831,0.1929,0.1996,0.2095,0.2121,0.2202,0.2267,0.2346,0.257,0.2577,0.2732,0.2886,0.2851,0.2875,0.2855,0.2799,0.2688,0.2716,0.2738,0.2619,0.252,0.2383,0,0,0,0,0,0.1739,0.1744,0.1803,0.1859,0.1949,0.2003,0.2138,0.2221,0.2396,0.2353,0.2455,0.2513,0.2544,0.2627,0.2553,0.2771,0.282,0.2673,0.271,0.2837,0.2858,0.274,0,0,0,0,0,0,0.1688,0.1741,0.1752,0.1728,0.174,0.1812,0.189,0.2011,0.1998,0.2186,0.2216,0.2354,0.2427,0.2555,0.2502,0.2527,0.2495,0.2774,0.2767,0.2825,0.2844,0.2861,0.2747,0,0,0,0,0]},{"header":{"parameterUnit":"m.s-1","parameterCategory":2,"la1":30.2991,"la2":30.254,"lo1":-89.0895,"lo2":-89.0444,"dy":0.0017,"dx":0.0017,"nx":28,"ny":28,"refTime":"2024-05-11T03:00:00:Z","depth":"4","parameterNumber":3,"parameterNumberName":"V-component_of_CURRENTS"},"data":[0,0,0,0,0,0,0,0,0,0,0,0,0,0,0,0,0,0,0,0,0,0,0,0,0,0,0,0,0,0,0,0,0,0,0,0,0,0,0,0,0,0,0,0,0,0,0,0,0,0,0,0,0,0,0,0,0,0,0.0219,0.0218,0,0.0196,0.0196,0.0196,0.0183,0.0183,0.0183,0.0183,0.0144,0.0143,0.0142,0,0,0,0,0,0,0,0,0,0,0,0,0,0.0209,0.021,0.0219,0.0218,0.0218,0.0196,0.0196,0.0195,0.0183,0.0183,0.0183,0.0183,0.0144,0.0143,0.0142,0,0,0,0,0,0,0,0,0,0,0,0,0,0.0202,0.021,0.0219,0.021,0.0209,0.0196,0.0196,0.0195,0.0183,0.0183,0.0183,0.0183,0.0144,0.0143,0.0141,0.0132,0,0,0.0137,0.0136,0,0,0,0,0,0,0,0,0.0203,0.0203,0.0211,0.021,0.0209,0.0193,0.0178,0.0173,0.0183,0.0192,0.0183,0.0183,0.0159,0.0156,0.0151,0.013,0.0128,0.0137,0.0136,0.0135,0.0134,0,0,0,0,0,0,0,0.0203,0.0203,0.0209,0.0211,0.021,0.0192,0.0192,0.0177,0.0175,0.0191,0.019,0.0189,0.0158,0.0153,0.015,0.0128,0.0137,0.0135,0.0134,0.0134,0.0103,0.0103,0,0,0,0,0,0,0.021,0.0204,0.021,0.0209,0.0206,0.0193,0.0192,0.0197,0.0175,0.0172,0.0189,0.0188,0.0156,0.0152,0.0149,0.0156,0.0135,0.0133,0.0133,0.0103,0.0103,0.0103,0,0,0,0,0,0,0.021,0.0211,0.0211,0.0206,0.0205,0.0193,0.0199,0.0197,0.0197,0.0174,0.017,0.0192,0.0155,0.0151,0.0145,0.0154,0.0133,0.0131,0.0103,0.0103,0.0103,0.0157,0,0,0,0,0,0,0.021,0.0211,0.0219,0.0207,0.0205,0.0212,0.0199,0.0197,0.0196,0.0195,0.0175,0.0171,0.0155,0.0148,0.0144,0.0151,0.013,0.0103,0.0103,0.0103,0.0155,0.0159,0.0163,0,0,0,0,0,0.0209,0.0222,0.022,0.0221,0.0217,0.0213,0.0211,0.0202,0.0196,0.0201,0.0188,0.0172,0.0146,0.0147,0.0142,0.0149,0.0103,0.0103,0.0103,0.0154,0.0158,0.0163,0,0,0,0,0,0,0.0223,0.0222,0.0219,0.0231,0.0226,0.0211,0.0215,0.0207,0.02,0.02,0.0177,0.0173,0.0169,0.015,0.0152,0.0139,0.012,0.012,0.016,0.0164,0.0168,0.0186,0.0129,0,0,0,0,0,0.023,0.024,0.0232,0.0243,0.0243,0.023,0.0228,0.0221,0.0212,0.0209,0.0194,0.0177,0.0165,0.0159,0.0143,0.014,0.0112,0.0138,0.0142,0.0146,0.0156,0.0119,0.012,0.0104,0.0104,0.0104,0,0,0.0237,0.0239,0.0244,0.0247,0.0242,0.0252,0.0229,0.023,0.0239,0.0205,0.0213,0.019,0.0166,0.0163,0.0159,0.015,0.0134,0.0146,0.0149,0.0158,0.0119,0.0121,0.0122,0.0104,0.0104,0.0104,0,0,0.0259,0.026,0.0276,0.0277,0.0275,0.0269,0.0272,0.0261,0.0259,0.026,0.0237,0.0222,0.0204,0.0189,0.0178,0.0191,0.0154,0.0183,0.0218,0.0182,0.0183,0.0184,0.0147,0.0144,0.0185,0.0185,0.0185,0,0.0268,0.0291,0.0279,0.0295,0.0305,0.0282,0.0303,0.0295,0.0284,0.0286,0.027,0.0241,0.0218,0.0214,0.0219,0.0201,0.0174,0.0206,0.0188,0.0188,0.0188,0.015,0.0146,0.0188,0.0188,0.0187,0.0187,0,0.0301,0.0321,0.0331,0.0349,0.0354,0.0368,0.0359,0.0362,0.0352,0.0342,0.0334,0.0297,0.0282,0.0266,0.0249,0.0238,0.0216,0.0196,0.018,0.0193,0.0151,0.0146,0.0192,0.0191,0.019,0.0189,0,0,0.0324,0.0351,0.0357,0.0381,0.0387,0.0399,0.0413,0.0422,0.0441,0.0409,0.0424,0.0386,0.0359,0.0345,0.0311,0.0279,0.0248,0.0244,0.024,0.0214,0.0166,0.0148,0.014,0.0224,0.0223,0.0223,0.0137,0,0.0358,0.0405,0.0408,0.0458,0.0484,0.0476,0.0496,0.0498,0.0491,0.0495,0.0445,0.0443,0.0391,0.0387,0.0344,0.0277,0.0238,0.0273,0.0153,0.0149,0.0136,0.0135,0.0222,0.0133,0.0131,0.0131,0.013,0,0.0394,0.0425,0.0482,0.0527,0.0539,0.0566,0.0604,0.0619,0.0609,0.06,0.0574,0.0533,0.0488,0.0439,0.0323,0.0348,0.0266,0.0203,0.0198,0.0161,0.0122,0.0116,0.012,0.0121,0.0122,0.0122,0.0123,0,0.0428,0.0479,0.0533,0.0548,0.059,0.0622,0.0647,0.0656,0.0684,0.0671,0.0682,0.0608,0.0584,0.0469,0.0336,0.0331,0.0199,0.0173,0.0075,0.0072,0.0091,0.0091,0.0087,0.0087,0.0087,0.0087,0.0088,0,0.0465,0.051,0.056,0.0592,0.0666,0.0675,0.0748,0.0755,0.0776,0.0816,0.0744,0.0746,0.0591,0.0495,0.036,0.0204,0.0212,0.0083,0.005,0.0114,0.0118,0.0087,0.0088,0.0084,0.0085,0.0085,0.0086,0,0.0491,0.0522,0.0591,0.0656,0.0687,0.0741,0.0825,0.0869,0.088,0.0928,0.093,0.0852,0.0726,0.0557,0.0371,0.0248,0.0093,0.0033,0.0118,0.0091,-0.0018,-0.0013,-0.0082,-0.0084,-0.0085,-0.0086,-0.0086,0,0.0506,0.0546,0.0644,0.0696,0.0734,0.0819,0.0879,0.092,0.097,0.0992,0.1015,0.0919,0.0841,0.0567,0.0378,0.0112,0.0069,-0.0019,-0.0025,-0.0009,-0.0035,-0.0028,-0.0022,-0.0088,-0.0089,-0.0089,-0.0089,0,0.0536,0.0576,0.0633,0.0742,0.0824,0.0915,0.1004,0.1048,0.1096,0.1108,0.1084,0.0945,0.0801,0.0575,0.0367,0.0175,0.0034,-0.0031,-0.0031,-0.0037,-0.0017,-0.004,-0.0033,-0.0093,-0.0093,-0.0092,-0.0092,0,0.0561,0.0604,0.0686,0.0782,0.0886,0.0983,0.1029,0.1087,0.1135,0.1154,0.1143,0.0985,0.0896,0.0607,0.0418,0.0225,0.0169,0.0093,0.0087,0.0088,0.0156,0.0207,0.0176,0,0,0,0,0,0.0578,0.0629,0.0718,0.0825,0.0929,0.0995,0.11,0.1136,0.1186,0.1177,0.1163,0.1027,0.0751,0.0634,0.0438,0.0381,0.0125,0.0141,0.0033,-0.0115,-0.011,-0.0062,0,0,0,0,0,0,0.0589,0.0669,0.0714,0.0846,0.0923,0.1043,0.1114,0.1149,0.1144,0.1159,0.1018,0.096,0.0693,0.0862,0.0429,0.0372,0.0271,0.0019,0.0014,-0.0117,-0.0113,-0.011,-0.0059,0,0,0,0,0]}]]